Parkersburg, WV

4:12 AM EST on December 09, 2019 (GMT -0500)
Wood County Wilson

Weather History for KPKB - September, 2019

Change the Weather History Date:

Monday, September 16, 2019

  Actual Average Record
Temperature  
Mean Temperature 76 °F 66 °F  
Max Temperature 93 °F 77 °F 96 °F (1939)
Min Temperature 58 °F 55 °F 39 °F (2007)
Degree Days  
Heating Degree Days 0 2  
Month to date heating degree days 0 17  
Since 1 July heating degree days 0 22  
Cooling Degree Days 10 3  
Month to date cooling degree days 140 77  
Year to date cooling degree days 1110 907  
Growing Degree Days 26 (Base 50)    
Moisture  
Dew Point 61 °F    
Average Humidity 68    
Maximum Humidity 97    
Minimum Humidity 38    
Precipitation  
Precipitation 0.00 in 0.10 in 1.80 in (1996)
Month to date precipitation 0.32 1.69  
Year to date precipitation 33.77 30.48  
Sea Level Pressure  
Sea Level Pressure 30.07 in    
Wind  
Wind Speed 1 mph ()    
Max Wind Speed 8 mph    
Max Gust Speed -    
Visibility 10.0 miles    
Events      
T = Trace of Precipitation, MM = Missing Value Source: Averaged Metar Reports

Daily Weather History Graph

Daily Weather History Graph

Search for Another Location

Airport or City:

Astronomy

Sep. 16, 2019 Rise Set
Actual Time 7:07 AM EDT 7:32 PM EDT
Civil Twilight 6:40 AM EDT 7:59 PM EDT
Nautical Twilight 6:09 AM EDT 8:31 PM EDT
Astronomical Twilight 5:36 AM EDT 9:03 PM EDT
Moon 9:07 PM EDT (9/16) 9:12 AM EDT (9/16)
Length of Visible Light 13h 19m
Length of Day
12h 25m
Waning Gibbous, 94% of the Moon is Illuminated
Sep 16
Waning Gibbous
Sep 21
Last Quarter
Sep 28
New
Oct 5
First Quarter
Oct 13
Full

Hourly Weather History & Observations

Time (EDT) Temp. Heat Index Dew Point Humidity Pressure Visibility Wind Dir Wind Speed Gust Speed Precip Events Conditions
12:53 AM 64.0 °F - 59.0 °F 84% 30.12 in 10.0 mi Calm Calm - N/A   Overcast
1:53 AM 64.9 °F - 60.1 °F 84% 30.11 in 10.0 mi Calm Calm - N/A   Scattered Clouds
2:53 AM 62.1 °F - 59.0 °F 90% 30.10 in 10.0 mi Calm Calm - N/A   Scattered Clouds
3:53 AM 61.0 °F - 59.0 °F 93% 30.09 in 10.0 mi Calm Calm - N/A   Mostly Cloudy
4:53 AM 61.0 °F - 57.9 °F 90% 30.09 in 10.0 mi Calm Calm - N/A   Clear
5:53 AM 59.0 °F - 57.0 °F 93% 30.10 in 10.0 mi Calm Calm - N/A   Clear
6:53 AM 60.1 °F - 57.0 °F 90% 30.11 in 10.0 mi Calm Calm - N/A   Overcast
7:53 AM 60.1 °F - 57.0 °F 90% 30.12 in 10.0 mi Calm Calm - N/A   Clear
8:53 AM 66.0 °F - 60.1 °F 81% 30.13 in 10.0 mi Calm Calm - N/A   Scattered Clouds
9:53 AM 73.0 °F - 57.0 °F 57% 30.13 in 10.0 mi Calm Calm - N/A   Partly Cloudy
10:53 AM 78.1 °F - 55.9 °F 46% 30.12 in 10.0 mi Variable 4.6 mph - N/A   Partly Cloudy
11:53 AM 78.1 °F - 55.9 °F 46% 30.12 in 10.0 mi Variable 4.6 mph - N/A   Partly Cloudy
12:53 PM 86.0 °F 85.7 °F 60.1 °F 41% 30.08 in 10.0 mi Calm Calm - N/A   Clear
1:53 PM 88.0 °F 87.9 °F 61.0 °F 40% 30.06 in 10.0 mi WNW 4.6 mph - N/A   Clear
2:53 PM 90.0 °F 90.6 °F 63.0 °F 40% 30.03 in 10.0 mi West 8.1 mph - N/A   Clear
3:53 PM 91.0 °F 91.9 °F 63.0 °F 39% 30.01 in 10.0 mi Variable 5.8 mph - N/A   Partly Cloudy
4:53 PM 90.0 °F 90.6 °F 63.0 °F 40% 30.00 in 10.0 mi Calm Calm - N/A   Mostly Cloudy
5:53 PM 86.0 °F 87.6 °F 64.9 °F 49% 30.01 in 10.0 mi NNW 6.9 mph - N/A   Scattered Clouds
6:53 PM 84.0 °F 86.3 °F 66.0 °F 55% 30.02 in 10.0 mi NNW 5.8 mph - N/A   Clear
7:53 PM 79.0 °F - 64.9 °F 62% 30.02 in 10.0 mi NNW 3.5 mph - N/A   Clear
8:53 PM 75.0 °F - 66.0 °F 73% 30.03 in 10.0 mi Calm Calm - N/A   Clear
9:53 PM 71.1 °F - 66.9 °F 87% 30.04 in 10.0 mi Calm Calm - N/A   Clear
10:53 PM 70.0 °F - 66.0 °F 87% 30.06 in 10.0 mi Calm Calm - N/A   Clear
11:53 PM 70.0 °F - 64.9 °F 84% 30.06 in 10.0 mi NNW 4.6 mph - N/A   Clear